Wind_Speed
11 11 11 11 10 10 9 7 5 5 4 2 2 2 2 2 2 2 2 2 2 2 1 1 2 2 3 3 3 3 3 3 3 3 2 2 3 3 3 2 2 3 4 4
11 12 12 12 11 10 9 7 6 7 6 4 4 4 4 3 3 2 2 3 3 3 2 1 1 1 2 2 2 2 2 2 2 2 1 2 2 2 2 2 2 2 2 3
12 12 12 12 11 11 10 9 9 8 7 6 5 5 5 4 4 3 3 4 4 4 3 2 2 1 1 1 1 1 0 1 1 1 2 2 2 2 3 2 2 2 2 3
13 13 13 13 12 11 11 12 10 9 7 7 6 5 6 5 5 4 4 5 5 5 5 4 4 4 3 3 2 2 2 3 3 3 3 3 4 4 3 3 3 3 3 3
14 14 14 12 12 12 12 12 11 9 9 7 7 5 6 6 6 6 6 5 6 6 6 6 6 6 6 5 5 5 5 4 5 4 4 5 5 5 5 5 4 4 4 5
16 15 15 14 13 14 12 11 10 10 9 8 8 6 6 7 7 7 7 6 7 7 7 7 8 8 8 8 7 7 7 7 7 6 6 6 6 6 6 6 6 5 5 6
17 17 16 15 15 14 13 11 9 9 9 10 10 8 8 8 7 7 7 8 8 8 8 8 9 9 9 9 9 9 9 9 9 8 8 8 8 8 8 8 8 7 8 8
17 17 17 16 15 15 14 12 11 10 10 10 10 9 8 8 8 8 8 8 9 9 9 10 10 9 10 10 11 11 11 11 11 11 11 11 10 10 10 10 10 10 10 10
17 18 17 17 16 16 15 14 13 12 11 10 10 10 9 9 9 9 9 9 9 9 10 10 11 11 11 12 12 12 12 12 13 13 13 13 13 12 12 12 12 12 12 12
19 19 19 17 17 18 17 15 14 13 12 11 10 10 11 11 11 10 10 10 10 10 11 11 11 11 11 12 13 14 14 14 15 14 14 14 14 15 15 15 14 13 13 13
19 19 19 19 19 18 18 17 16 16 15 13 11 12 14 13 13 12 12 11 11 12 13 12 12 12 12 13 14 15 16 15 16 16 16 16 16 16 16 16 16 15 15 14
20 19 19 20 19 19 19 19 18 17 17 16 14 15 16 15 15 14 13 13 13 14 14 14 14 14 14 14 15 16 17 17 18 18 18 18 18 18 18 17 17 16 16 16
22 21 20 19 20 20 20 20 19 18 18 18 16 16 17 16 15 15 15 15 15 15 15 16 16 16 16 16 16 17 18 18 19 20 20 20 20 20 19 19 18 18 18 18
23 23 21 20 20 21 20 20 19 19 19 19 18 18 19 17 16 16 17 16 16 16 16 17 18 18 18 18 18 19 19 20 21 21 22 22 22 21 21 21 21 20 20 20
24 24 23 22 22 22 22 21 21 21 21 19 19 20 20 19 18 18 18 18 17 18 18 19 19 19 19 20 20 20 21 22 22 23 23 23 24 24 23 23 22 22 23 23
25 24 24 24 23 23 24 23 23 23 23 22 21 22 21 20 19 19 19 19 18 18 19 20 21 21 21 21 22 22 22 23 24 24 23 24 23 23 24 24 24 24 25 25
25 25 24 24 24 24 25 24 24 24 23 23 22 23 22 21 21 21 21 21 20 20 21 23 23 23 24 23 23 24 24 25 26 26 26 25 25 25 25 25 25 25 26 25
25 25 25 25 25 26 25 24 24 25 24 24 23 24 24 24 23 23 23 23 23 23 23 24 25 25 26 26 26 26 26 27 27 28 28 28 27 27 28 28 28 28 28 27
26 26 26 26 26 27 27 25 25 25 25 25 25 25 26 26 26 26 26 26 26 25 25 25 26 27 28 28 28 28 29 29 29 30 30 30 30 30 30 30 30 30 29 29
27 27 26 26 26 27 27 26 26 27 27 27 27 28 28 27 28 29 28 28 28 27 27 28 28 28 29 29 30 30 30 31 31 31 31 32 32 32 32 32 31 31 31 31
27 27 27 26 26 26 27 26 26 28 28 28 29 29 29 29 29 30 30 30 29 29 30 30 30 30 29 30 30 31 32 32 32 32 33 33 33 33 33 33 32 32 32 32
26 26 26 26 26 27 26 26 28 28 27 28 28 29 30 30 30 30 30 31 31 31 31 31 30 31 31 31 32 32 32 33 33 33 33 33 33 33 33 33 34 34 34 33
26 26 27 27 28 27 26 27 27 28 28 29 30 30 30 30 30 31 31 32 32 32 32 32 32 32 33 33 33 33 32 32 33 33 33 33 33 33 32 33 34 34 33 33
25 25 26 26 27 27 28 28 29 29 30 30 31 31 31 31 31 31 32 32 32 32 32 32 32 33 33 33 33 33 33 33 33 32 32 32 32 33 32 31 32 33 33 33
25 25 25 26 26 27 27 29 30 30 30 30 30 30 31 31 32 32 32 32 33 33 34 33 34 34 35 34 34 35 34 34 34 33 33 33 33 33 33 33 32 33 34 34
25 25 25 25 26 27 27 28 28 29 30 30 30 30 30 31 31 32 33 34 34 33 34 34 35 35 35 35 35 35 35 35 34 34 33 34 34 33 33 33 34 34 34 34
Wind_Direction
211 210 216 214 208 209 210 216 227 234 230 240 267 295 305 316 323 310 306 312 333 337 357 41 59 76 81 77 79 81 82 79 80 77 73 62 46 48 47 53 53 47 49 54
210 215 216 214 215 216 215 219 234 243 242 255 280 289 294 303 306 294 290 286 283 291 292 312 18 57 73 70 65 75 76 66 59 52 28 15 10 17 24 21 25 27 27 27
211 217 219 217 218 218 219 222 228 241 251 262 278 295 295 293 292 289 280 273 269 265 266 269 276 295 306 328 11 10 359 349 353 342 336 332 333 340 343 331 325 334 347 356
216 219 222 222 222 221 227 230 235 242 249 264 269 279 286 282 282 284 282 265 258 253 257 262 265 268 273 280 280 285 291 296 301 301 302 310 321 323 322 314 314 312 317 326
221 223 224 225 226 223 227 233 239 245 247 252 259 262 273 274 275 273 269 253 247 249 250 258 265 263 264 269 275 279 288 288 292 292 296 300 308 319 325 314 303 295 301 308
222 225 227 229 231 230 233 238 243 249 256 255 253 253 264 268 271 269 260 252 247 251 254 261 265 264 263 264 271 277 280 281 283 285 289 293 302 311 315 316 301 290 292 295
226 228 230 232 231 233 233 236 246 257 258 258 257 254 256 259 260 257 252 251 253 253 253 258 264 268 266 265 268 274 275 277 278 281 284 287 295 302 304 304 298 290 290 292
228 232 233 233 233 235 235 234 238 244 247 255 264 254 256 253 254 255 255 256 256 257 255 259 265 269 269 268 267 269 272 272 273 277 280 284 289 292 296 297 295 290 286 288
226 232 235 235 234 233 235 236 238 241 246 249 252 254 258 255 254 255 257 257 254 255 260 263 262 263 265 269 269 271 268 268 272 276 279 282 283 286 290 293 292 290 288 289
228 232 237 238 236 233 235 239 240 237 244 248 256 257 259 256 256 259 261 260 258 256 261 262 262 261 263 268 271 271 270 272 275 278 279 281 282 284 287 287 287 288 286 287
230 232 238 240 237 240 240 240 242 240 240 245 255 256 257 259 260 263 267 267 263 257 261 264 263 265 268 269 269 268 270 273 277 281 282 284 285 286 287 287 286 286 286 285
232 233 238 242 241 240 243 241 243 244 247 247 250 257 259 257 261 260 262 263 263 262 263 264 266 269 271 270 268 268 268 272 276 278 280 281 283 285 286 287 286 286 286 285
234 234 238 243 245 243 243 243 245 247 251 252 253 258 258 256 259 259 258 259 260 262 263 264 264 268 271 271 270 270 272 274 276 280 280 280 282 284 285 286 285 285 285 284
235 237 236 239 246 249 249 248 248 248 250 254 253 252 256 255 258 260 257 257 258 260 262 263 264 266 271 272 270 271 273 275 277 279 280 281 282 281 282 283 282 282 282 283
236 238 239 240 243 246 248 248 248 249 250 251 252 254 254 254 256 257 257 256 257 261 263 264 266 269 272 273 273 273 273 274 275 277 278 279 279 279 280 280 279 280 281 282
237 240 243 244 245 247 249 248 250 251 250 250 253 255 254 254 256 256 256 257 258 261 262 264 267 270 272 274 274 275 275 274 274 275 276 277 278 278 278 277 277 278 280 281
239 242 244 247 248 249 251 250 250 250 251 252 254 255 255 257 259 260 260 259 261 263 265 266 267 268 269 272 274 276 277 276 275 274 275 276 276 278 278 278 278 278 279 280
239 241 244 247 250 250 251 249 249 251 252 251 251 255 257 258 260 262 263 262 263 264 266 268 268 268 269 270 273 275 276 277 277 276 275 275 275 276 277 277 278 278 278 278
239 242 245 248 251 253 252 250 250 250 251 251 253 255 257 259 262 262 262 262 263 264 265 269 270 271 270 271 272 274 277 278 278 278 277 275 274 275 275 276 277 278 278 278
240 243 246 249 250 251 253 251 252 252 252 251 253 257 260 261 263 263 263 263 264 266 266 268 270 271 271 272 272 274 276 277 277 278 278 278 276 274 274 275 277 277 277 277
241 243 246 249 250 252 253 253 252 252 254 254 256 260 261 261 262 263 264 264 265 267 268 270 271 271 272 273 274 275 276 276 277 277 277 278 278 278 277 276 277 278 277 276
243 244 245 247 250 253 255 255 253 254 257 259 260 261 262 263 263 263 263 265 265 267 268 271 272 272 272 274 275 275 276 276 276 277 277 278 277 277 278 277 278 279 279 277
243 246 248 249 250 254 256 257 258 259 262 262 262 262 263 263 264 264 264 265 265 265 265 267 270 271 272 273 274 275 275 276 277 277 277 277 277 276 277 279 279 280 278 277
246 248 251 253 252 254 257 259 261 262 264 265 265 265 264 264 264 264 264 264 264 264 265 267 269 271 271 272 274 274 276 277 278 277 277 278 277 277 278 279 278 279 279 279
248 251 253 254 255 257 259 260 262 264 266 267 265 265 265 266 266 266 265 265 267 267 267 268 271 272 271 271 273 273 275 276 276 277 278 279 279 279 279 279 279 279 280 280
249 253 255 257 258 259 260 262 264 265 266 267 267 267 266 267 268 268 267 267 267 268 269 269 271 272 272 271 272 273 274 274 274 275 277 279 279 279 282 282 281 281 280 279
Height
5908 5911 5912 5914 5915 5917 5918 5919 5919 5919 5919 5919 5919 5918 5917 5916 5916 5915 5914 5913 5913 5913 5912 5912 5911 5910 5909 5908 5907 5907 5906 5906 5905 5905 5904 5904 5903 5902 5901 5900 5899 5899 5898 5896
5907 5909 5910 5911 5913 5915 5916 5918 5919 5918 5918 5919 5918 5918 5917 5916 5915 5915 5914 5914 5913 5913 5913 5912 5912 5911 5910 5909 5908 5908 5907 5907 5906 5905 5905 5904 5903 5902 5902 5901 5900 5899 5898 5897
5905 5908 5908 5910 5912 5913 5915 5916 5917 5917 5917 5918 5918 5918 5917 5916 5915 5915 5914 5913 5913 5913 5913 5912 5912 5911 5910 5910 5909 5909 5908 5907 5907 5906 5905 5904 5903 5903 5902 5901 5900 5899 5898 5897
5902 5904 5906 5908 5910 5911 5913 5914 5915 5915 5916 5918 5917 5918 5917 5915 5915 5914 5913 5913 5913 5912 5912 5912 5911 5911 5910 5910 5910 5909 5908 5907 5907 5906 5905 5904 5904 5903 5901 5900 5899 5899 5898 5897
5900 5902 5903 5906 5908 5909 5910 5911 5912 5913 5914 5916 5916 5916 5917 5914 5914 5913 5912 5911 5911 5911 5911 5911 5910 5910 5910 5909 5909 5909 5908 5907 5906 5906 5905 5904 5903 5902 5901 5900 5899 5898 5897 5896
5897 5899 5900 5903 5904 5906 5907 5909 5910 5911 5913 5914 5914 5915 5915 5913 5912 5912 5911 5910 5910 5910 5910 5909 5909 5909 5908 5908 5908 5907 5907 5906 5906 5905 5904 5903 5902 5902 5901 5899 5898 5897 5896 5895
5894 5896 5897 5899 5901 5903 5905 5908 5910 5911 5912 5913 5912 5912 5912 5910 5910 5910 5909 5909 5909 5908 5908 5908 5907 5907 5907 5906 5906 5906 5905 5905 5904 5903 5903 5902 5901 5900 5899 5898 5897 5896 5895 5894
5892 5893 5895 5896 5898 5900 5902 5905 5908 5909 5910 5911 5909 5909 5909 5908 5908 5908 5907 5907 5906 5906 5906 5906 5905 5905 5904 5904 5904 5904 5904 5903 5902 5902 5901 5900 5899 5898 5898 5897 5895 5894 5893 5892
5889 5891 5892 5893 5895 5897 5899 5900 5903 5905 5905 5906 5907 5906 5906 5905 5905 5905 5905 5904 5904 5904 5904 5903 5903 5903 5902 5902 5902 5902 5901 5901 5900 5899 5898 5897 5897 5896 5895 5894 5893 5891 5891 5890
5884 5887 5888 5889 5891 5893 5895 5897 5899 5901 5902 5903 5904 5904 5904 5902 5902 5902 5901 5901 5901 5901 5901 5900 5900 5900 5900 5899 5899 5899 5899 5898 5898 5897 5896 5895 5894 5893 5892 5891 5889 5888 5887 5886
5880 5883 5884 5885 5887 5889 5891 5893 5894 5896 5898 5900 5901 5903 5899 5899 5899 5899 5898 5898 5898 5898 5898 5897 5897 5897 5897 5896 5896 5896 5895 5895 5895 5894 5893 5892 5891 5889 5888 5887 5886 5885 5884 5883
5875 5878 5880 5881 5883 5884 5886 5888 5890 5892 5893 5894 5896 5899 5895 5895 5895 5895 5895 5894 5894 5894 5894 5893 5893 5893 5893 5893 5892 5892 5892 5892 5891 5891 5890 5889 5887 5886 5885 5883 5882 5881 5880 5879
5871 5874 5876 5877 5880 5881 5882 5883 5885 5888 5889 5890 5892 5895 5891 5890 5890 5890 5890 5890 5890 5890 5890 5890 5889 5889 5889 5889 5888 5888 5888 5887 5887 5886 5885 5884 5883 5882 5880 5879 5878 5877 5876 5875
5865 5868 5872 5875 5876 5876 5877 5878 5880 5882 5884 5885 5886 5887 5886 5886 5886 5886 5886 5886 5886 5885 5885 5885 5885 5885 5885 5884 5884 5883 5883 5882 5882 5881 5880 5879 5878 5877 5875 5874 5873 5872 5871 5870
5859 5862 5864 5867 5869 5870 5872 5873 5875 5876 5878 5880 5881 5880 5880 5881 5881 5881 5881 5881 5881 5881 5881 5881 5881 5880 5880 5879 5878 5878 5877 5877 5876 5875 5875 5873 5872 5871 5870 5868 5867 5866 5865 5864
5853 5856 5858 5860 5862 5864 5865 5867 5869 5870 5871 5873 5874 5874 5874 5875 5875 5875 5875 5876 5876 5876 5876 5876 5875 5875 5875 5874 5873 5872 5872 5871 5870 5869 5868 5867 5866 5865 5864 5862 5861 5860 5859 5858
5848 5850 5853 5854 5856 5857 5859 5861 5862 5864 5865 5867 5868 5868 5868 5869 5869 5869 5869 5870 5870 5870 5870 5870 5870 5869 5869 5868 5867 5866 5866 5865 5864 5863 5862 5860 5859 5858 5857 5856 5855 5853 5852 5851
5842 5844 5846 5848 5850 5851 5854 5854 5856 5857 5858 5860 5860 5861 5862 5862 5862 5863 5863 5863 5863 5863 5863 5863 5863 5862 5862 5861 5860 5860 5859 5858 5857 5855 5854 5853 5852 5851 5850 5849 5847 5846 5845 5843
5835 5838 5840 5842 5843 5844 5846 5848 5849 5850 5851 5853 5853 5854 5854 5855 5855 5855 5856 5856 5856 5856 5856 5856 5855 5854 5854 5853 5853 5852 5851 5850 5849 5847 5846 5845 5844 5843 5841 5840 5839 5838 5836 5835
5828 5830 5833 5834 5836 5838 5839 5840 5841 5843 5843 5845 5845 5846 5847 5847 5848 5848 5848 5848 5848 5848 5848 5847 5847 5846 5846 5845 5844 5844 5843 5842 5840 5839 5837 5836 5834 5833 5832 5831 5830 5828 5827 5826
5821 5823 5825 5826 5828 5830 5830 5832 5834 5837 5837 5837 5838 5838 5839 5839 5840 5840 5840 5840 5840 5840 5839 5839 5838 5838 5837 5836 5836 5835 5834 5832 5831 5829 5828 5826 5824 5823 5822 5821 5819 5818 5817 5816
5814 5816 5817 5819 5821 5823 5822 5824 5826 5827 5828 5828 5829 5829 5830 5830 5831 5831 5831 5831 5831 5831 5830 5830 5829 5829 5828 5828 5827 5826 5825 5823 5821 5820 5819 5817 5815 5814 5812 5811 5810 5809 5807 5806
5806 5809 5810 5812 5814 5814 5815 5816 5817 5818 5819 5820 5820 5821 5821 5821 5821 5822 5822 5822 5822 5821 5821 5821 5820 5819 5819 5818 5817 5816 5815 5814 5812 5810 5809 5807 5806 5804 5803 5801 5800 5799 5797 5796
5799 5801 5802 5804 5804 5806 5807 5807 5809 5810 5810 5811 5811 5811 5812 5812 5812 5812 5812 5812 5812 5812 5811 5811 5810 5810 5809 5808 5807 5806 5805 5804 5803 5801 5799 5797 5796 5795 5793 5792 5791 5789 5788 5786
5792 5794 5795 5796 5797 5798 5798 5799 5800 5800 5801 5801 5801 5802 5802 5802 5802 5802 5803 5803 5803 5802 5802 5801 5801 5800 5799 5798 5797 5796 5795 5794 5793 5792 5790 5788 5787 5786 5784 5783 5781 5780 5778 5776
5785 5786 5788 5788 5789 5790 5791 5791 5791 5792 5792 5792 5793 5793 5793 5793 5792 5792 5792 5792 5792 5792 5791 5791 5790 5790 5789 5788 5787 5786 5785 5784 5783 5782 5780 5779 5777 5776 5774 5773 5771 5769 5767 5766